This is the latest recevied weather packets stored in our database for station/object N5LSN. If no packets are shown the sender has not sent any weather packets the latest 10 day(s).
| Time | Temp. | Humidity | Pressure | Rain* | Wind** | Luminosity | Snow |
|---|---|---|---|---|---|---|---|
| 1777127352 | 16.11° C | 99% | 1010.9 hPa | 0 mm | - | 131 W/m² | - |
| 1777127049 | 16.11° C | 99% | 1011.1 hPa | 0 mm | - | 138 W/m² | - |
| 1777126744 | 16.11° C | 99% | 1011.2 hPa | 0 mm | - | 154 W/m² | - |
| 1777126441 | 16.11° C | 99% | 1011.5 hPa | 0 mm | - | 163 W/m² | - |
| 1777126135 | 16.11° C | 99% | 1011.2 hPa | 0 mm | - | 103 W/m² | - |
| 1777125833 | 16.11° C | 99% | 1011.4 hPa | 0 mm | - | 115 W/m² | - |
| 1777125528 | 16.11° C | 99% | 1011.2 hPa | 0 mm | - | 105 W/m² | - |
| 1777125223 | 15.56° C | 99% | 1011.1 hPa | 0 mm | - | 109 W/m² | - |
| 1777124919 | 15.56° C | 99% | 1011.4 hPa | 0 mm | - | 89 W/m² | - |
| 1777124616 | 15.56° C | 99% | 1011 hPa | 0 mm | - | 85 W/m² | - |
| 1777124311 | 15.56° C | 99% | 1011.1 hPa | 0 mm | - | 82 W/m² | - |
| 1777124009 | 15.56° C | 99% | 1011 hPa | 0 mm | - | 81 W/m² | - |
| 1777123705 | 15.56° C | 99% | 1011.1 hPa | 0 mm | - | 80 W/m² | - |
| 1777123401 | 15.56° C | 99% | 1011 hPa | 0 mm | - | 82 W/m² | - |
| 1777123097 | 15.56° C | 99% | 1011 hPa | 0 mm | - | 85 W/m² | - |
| 1777122794 | 15.56° C | 99% | 1010.9 hPa | 0 mm | - | 78 W/m² | - |
| 1777122490 | 15.56° C | 99% | 1011 hPa | 0 mm | - | 73 W/m² | - |
| 1777122187 | 15.56° C | 99% | 1011 hPa | 0 mm | - | 79 W/m² | - |
| 1777121883 | 15.56° C | 99% | 1010.8 hPa | 0 mm | - | 69 W/m² | - |
| 1777121580 | 15.56° C | 99% | 1010.7 hPa | 0 mm | - | 59 W/m² | - |
| 1777121275 | 15.56° C | 99% | 1010.7 hPa | 0 mm | - | 51 W/m² | - |
| 1777120972 | 15.56° C | 99% | 1010.8 hPa | 0 mm | - | 47 W/m² | - |
| 1777120668 | 15.56° C | 99% | 1010.7 hPa | 0 mm | - | 52 W/m² | - |
| 1777120364 | 15.56° C | 99% | 1010.6 hPa | 0 mm | - | 46 W/m² | - |
| 1777120059 | 15.56° C | 99% | 1010.6 hPa | 0 mm | - | 28 W/m² | - |
* Rain latest hour (hover to see other rain measurements)
** Current wind speed in m/s (hover to see current wind gust speed)